{"data":{"norad_id":32955,"intl_designator":"2008-025C","name":"COSMOS 2438","alt_names":[],"object_type":"PAYLOAD","status":"ACTIVE","operator":null,"country":"CIS","launch_date":"2008-05-23","launch_site_code":"PLMSC","launch_vehicle":null,"mission":null,"orbit_class":"UNKNOWN","rcs_meters":0.9307,"size_class":null,"mass_kg":null,"dimensions":null,"purposes":[],"wikipedia_slug":null,"has_3d_model":false,"image_url":null,"decayed_at":null,"tle_current":{"epoch":"2026-05-25T04:22:35.338944Z","epoch_age_seconds":55411,"freshness":"FRESH","line1":"1 32955U 08025C   26145.18235346 -.00000029  00000+0 -27669-3 0  9994","line2":"2 32955  82.5042   7.1468 0021457 357.4208   2.6757 12.43368347816970","mean_motion":12.43368347,"eccentricity":0.0021457,"inclination_deg":82.5042,"raan_deg":7.1468,"arg_perigee_deg":357.4208,"mean_anomaly_deg":2.6757,"bstar":-0.00027669,"rev_number":81697,"period_min":115.81443290513,"perigee_km":1475.4688781872,"apogee_km":1509.2443144064,"semimajor_km":7870.4935962968,"source":"CELESTRAK","updated_at":"2026-05-25T13:37:55.128401Z"}}}